#timestamp,LO_Frequency,Hit,StdDev 
1513076415.5,286047002.4,N
1513076435.3,286047001.7,N
1513076455.2,286047006.0,N
1513076475.9,286047002.6,N
1513076495.7,286047004.3,N
1513076515.5,286047006.4,N
1513076535.4,286047010.0,N
1513076555.2,286047013.7,Y
1513076575.0,286047013.1,P
1513076576.0,286047013.1,N
1513076595.8,286047015.2,N
1513076615.6,286047009.8,N
1513076635.4,286047013.6,N
1513076655.3,286047014.8,N
1513076675.1,286047013.1,N
1513076695.8,286047011.1,N
1513076715.7,286047010.6,N
1513076735.5,286047003.6,N
1513076755.3,286047001.9,N
1513076775.2,286046999.0,N
1513076795.9,286047001.9,N
1513076815.7,286047005.9,N
1513076835.6,286047006.4,N
1513076855.4,286047002.9,N
1513076875.2,286047003.8,N
1513076895.0,286047007.1,N
1513076895.9,286047007.1,N
1513076915.8,286047010.7,N
1513076935.6,286047009.5,N
1513076955.4,286047008.7,N
1513076975.3,286047009.6,N
1513076995.1,286047012.0,N
1513077015.8,286047010.5,N
1513077035.7,286047010.3,N
1513077055.5,286047007.9,N
1513077075.3,286047008.3,N
1513077095.2,286047009.2,N
1513077115.9,286047009.8,N
1513077135.7,286047009.9,N
1513077155.6,286047011.3,N
1513077175.4,286047010.5,N
1513077195.2,286047010.3,N
1513077215.0,286047011.0,N
1513077216.0,286047011.0,Y
1513077235.8,286047003.9,P
1513077255.6,286047003.6,N
1513077275.1,286047008.9,P
1513077295.8,286047008.8,Y
1513077315.7,286047002.8,P
1513077335.5,286046999.6,N
1513077355.3,286046995.6,N
1513077375.2,286046997.9,N
1513077395.0,286046993.8,N
1513077395.9,286046993.8,N
1513077415.7,286046992.8,N
1513077435.6,286046989.9,N
1513077455.4,286046989.0,N
1513077475.2,286046989.3,N
1513077495.1,286046987.2,N
1513077496.0,286046987.2,N
1513077515.8,286046987.1,N
1513077535.6,286046982.7,N
1513077555.5,286046982.8,N
1513077575.3,286046980.7,N
1513077595.1,286046978.9,Y
1513077615.9,286046991.0,P
1513077635.3,286046985.4,P
1513077655.1,286046984.9,P
1513077656.0,286046984.9,Y
1513077675.8,286046997.7,P
1513077695.7,286046997.0,N
1513077715.5,286046997.9,N
1513077735.3,286046995.5,N
1513077755.2,286046995.9,N
1513077775.9,286046997.8,N
1513077795.7,286046996.6,N
1513077815.6,286047000.2,N
1513077835.4,286047003.9,N
1513077855.2,286047007.1,N
1513077875.0,286047010.8,N
1513077876.0,286047010.8,N
1513077895.8,286047008.0,N
1513077915.6,286047012.3,N
1513077935.4,286047015.0,N
1513077955.3,286047017.5,N
1513077975.1,286047022.3,N
1513077995.8,286047024.5,N
1513078015.7,286047024.0,N
1513078035.5,286047024.2,N
1513078055.3,286047020.7,N
1513078075.2,286047017.4,N
1513078095.9,286047020.7,N
1513078115.7,286047021.8,N
1513078135.6,286047023.2,N
1513078155.4,286047024.4,N
1513078175.2,286047022.8,N
1513078195.0,286047023.6,N
1513078195.9,286047023.6,N
1513078215.8,286047021.9,N
1513078235.6,286047021.8,N
1513078255.4,286047018.4,N
1513078275.3,286047016.0,N
1513078295.1,286047015.0,N
1513078315.8,286047012.4,N
1513078335.7,286047011.5,N
1513078355.5,286047014.0,N
1513078375.3,286047014.5,N
1513078395.2,286047014.6,N
1513078415.9,286047009.5,N
1513078435.7,286047011.7,N
1513078455.6,286047013.8,N
1513078475.4,286047014.7,N
1513078495.2,286047018.3,Y
1513078515.1,286046996.7,P
1513078516.0,286046996.7,N
1513078535.8,286046998.7,N
1513078555.6,286046998.9,N
1513078575.4,286046994.9,N
1513078595.3,286046992.3,N
1513078615.1,286046995.5,N
1513078635.8,286046994.3,N
1513078655.7,286046994.2,N
1513078675.5,286046988.5,N
1513078695.3,286046989.7,N
1513078715.2,286046985.4,N
1513078735.9,286046982.5,N
1513078755.7,286046982.3,N
1513078775.6,286046985.0,N
1513078795.4,286046983.9,N
1513078815.2,286046987.0,N
1513078835.1,286046987.8,N
1513078836.0,286046987.8,N
1513078855.8,286046991.3,N
1513078875.6,286046994.3,N
1513078895.4,286046996.1,N
1513078915.3,286046997.1,N
1513078935.1,286046997.6,N
1513078955.8,286046996.8,N
1513078975.7,286046994.2,N
1513078995.5,286046993.9,N
1513079015.3,286046994.1,N
1513079035.2,286046991.1,N
1513079055.9,286046988.5,N
1513079075.7,286046992.3,N
1513079095.6,286046990.2,N
1513079115.4,286046993.1,N
1513079135.2,286046990.7,N
1513079155.0,286046990.2,N
1513079156.0,286046990.2,N
1513079175.8,286046993.1,N
1513079195.6,286046991.4,N
1513079215.4,286046993.0,N
1513079235.3,286046994.5,N
1513079255.1,286046991.0,N
1513079275.8,286046992.6,N
1513079295.7,286046994.3,N
1513079315.5,286046992.4,N
1513079335.3,286046991.4,N
1513079355.2,286046989.3,Y
1513079375.0,286046998.4,P
1513079375.9,286046998.4,N
1513079395.7,286047000.8,N
1513079415.6,286046995.5,N
1513079435.4,286046996.8,N
1513079455.2,286046998.4,N
1513079475.1,286047000.9,N
1513079476.0,286047000.9,N
1513079495.8,286047002.5,N
1513079515.6,286046998.9,N
1513079535.5,286046998.9,N
1513079555.3,286046998.1,N
1513079575.1,286047000.2,N
1513079595.8,286047000.0,N
1513079615.7,286046998.4,N
1513079635.5,286046996.2,N
1513079655.3,286046994.2,N
1513079675.2,286046992.1,Y
1513079695.0,286046994.3,P
1513079695.9,286046994.3,N
1513079715.7,286046993.3,P
1513079735.6,286046999.4,N
1513079755.4,286047000.7,N
1513079775.2,286047000.2,N
1513079795.1,286046996.6,N
1513079796.0,286046996.6,N
1513079815.8,286046998.6,N
1513079835.6,286046999.5,N
1513079855.5,286047000.4,N
1513079875.3,286047003.0,N
1513079895.1,286047007.6,N
1513079915.9,286047002.7,N
1513079935.7,286046999.2,N
1513079955.5,286047000.6,N
1513079975.3,286047002.6,N
1513079995.2,286047002.5,N
